Weather Roundup
Issued by NWS

Home | Current Version | Previous Version | Text Only | Print | Product List | Glossary On
Versions: 1 2 3 4 5 6 7 8 9 10 11 12 13 14 15 16 17 18 19 20 21 22 23 24 25 26 27 28 29 30 31 32 33 34 35 36 37 38 39 40 41 42 43 44 45 46 47 48 49 50
028
NZUS93 KARX 130210
HRRWXR

CURRENT HOURLY OBSERVATIONS ACROSS
MUCH OF THE UPPER MISSISSIPPI VALLEY
NATIONAL WEATHER SERVICE LA CROSSE WI
800 PM CST FRI FEB 12 2016


...SOUTHEAST MINNESOTA...


CITY           SKY/WX    TMP DP  RH WIND       PRES   REMARKS
ROCHESTER      CLOUDY     1 -10  60 NW13      30.49R WCI -17
ROCHESTER/MAYO FAIR       5  -9  52 W14       30.50R WCI -13
WINONA         CLEAR      9  -8  47 NW6       30.54R WCI  -1
AUSTIN         CLOUDY     3  -6  66 NW12G17   30.51S WCI -13
ALBERT LEA     CLOUDY     3  -6  66 NW9       30.52F WCI -11
DODGE CENTER   CLOUDY     1  -9  60 NW9       30.49R WCI -14
PRESTON        CLOUDY    -1 -11  60 NW8       30.48R WCI -15
OWATONNA       CLOUDY     1  -9  60 W10       30.54R WCI -14
FARIBAULT      CLEAR      3  -9  55 W9        30.54R WCI -11
$$

...ELSEWHERE IN MINNESOTA...


CITY           SKY/WX    TMP DP  RH WIND       PRES   REMARKS
MINNEAPOLIS    CLEAR      5 -10  50 NW10      30.56R WCI -10
INTNL FALLS    CLOUDY    -9 -19  61 NW12      30.52S WCI -28
DULUTH         CLEAR     -3 -18  48 NW15G23   30.43R WCI -23
RED WING       CLEAR      7 -17  33 NW7       30.54R WCI  -5
REDWOOD FALLS  CLOUDY     2  -6  69 NW13      30.61R WCI -15
MANKATO        CLOUDY     3  -8  60 NW10      30.56S WCI -12
WORTHINGTON    CLOUDY     0  -9  65 NW8       30.57R WCI -15
FAIRMONT       CLOUDY     3  -6  66 NW14      30.55S WCI -15
$$

...SOUTHWEST WISCONSIN...


CITY           SKY/WX    TMP DP  RH WIND       PRES   REMARKS
LA CROSSE      CLEAR      5 -10  50 NW10      30.51R WCI -10
PRAIRIE DU CHI CLEAR      8  -9  45 NW12      30.51R WCI  -7
BOSCOBEL       CLEAR      9 -10  42 NW8       30.49R WCI  -3
LONE ROCK      CLEAR      8 -10  43 NW16G23   30.47R WCI -10
PLATTEVILLE    CLEAR      9  -6  48 NW16G23   30.42R WCI  -8
FORT MC COY    CLEAR      5 -12  46 NW8       30.48S WCI  -8
CAMP DOUGLAS   CLEAR      4 -13  46 NW12      30.45R WCI -13
VIROQUA        FAIR       4 -12  47 N13       30.42S WCI -13
WIS DELLS      CLEAR      5 -13  43 NW12G20   30.42R WCI -11
$$

...ELSEWHERE IN WISCONSIN...


CITY           SKY/WX    TMP DP  RH WIND       PRES   REMARKS
MILWAUKEE      PTCLDY    10  -9  42 NW17G26   30.36R WCI  -8
MADISON        CLEAR      7 -10  46 NW12G17   30.41R WCI  -8
GREEN BAY      CLEAR      2 -12  52 NW13      30.39R WCI -15
EAU CLAIRE     CLEAR      2 -16  42 NW5       30.49R WCI  -8
BLACK RVR FLS  FAIR       4 -16  38 NW6       30.48S WCI  -7
MEDFORD        CLEAR     -2 -15  53 NW13      30.36S WCI -20
WAUSAU         CLEAR      1 -13  51 NW8       30.37R WCI -13
WIS RAPIDS     CLEAR      2 -15  45 N12       30.43R WCI -15
MARSHFIELD     CLEAR      0 -16  46 NW13      30.39R WCI -18
RICE LAKE      CLEAR      0 -17  46 W6        30.49R WCI -12
$$

...NORTHEAST IOWA...


CITY           SKY/WX    TMP DP  RH WIND       PRES   REMARKS
WATERLOO       CLOUDY     6  -5  60 NW17      30.54R WCI -13
DUBUQUE        CLEAR      8  -5  55 NW17      30.43R WCI -10
DECORAH        CLOUDY     5 -11  47 NW10      30.48R WCI -10
MASON CITY     CLOUDY     3  -6  66 N14       30.54R WCI -15
CHARLES CITY   CLOUDY     5  -8  56 NW14G22   30.53R WCI -12
OELWEIN        CLOUDY     3  -6  66 NW14      30.51R WCI -15
$$

...ELSEWHERE IN IOWA...


CITY           SKY/WX    TMP DP  RH WIND       PRES   REMARKS
DES MOINES     CLOUDY    10  -1  61 N7        30.58R WCI  -1
IOWA CITY      CLEAR     12  -3  51 NW17G26   30.54R WCI  -5
FORT DODGE     CLOUDY     3  -6  66 NW9G16    30.58S WCI -11
MARSHALLTOWN   CLOUDY     7   0  73 NW13      30.54R WCI  -9
CEDAR RAPIDS   CLEAR      9  -1  64 N16G24    30.51R WCI  -8
$$

...NORTHERN ILLINOIS...


CITY           SKY/WX    TMP DP  RH WIND       PRES   REMARKS
CHICAGO-OHARE  PTCLDY    13  -6  42 NW18G29   30.35R WCI  -4
CHICAGO-MIDWAY PTCLDY    16  -5  39 NW25G38   30.35R WCI  -3
MOLINE         CLEAR     12  -1  56 NW17G25   30.48R WCI  -5
ROCKFORD       CLEAR     13  -5  44 N22G28    30.41R WCI  -6
PEORIA         CLEAR     15   1  53 NW13G24   30.44R WCI   1
$$

NOTE: "FAIR" INDICATES FEW OR NO CLOUDS BELOW 12,000 FEET WITH NO
SIGNIFICANT WEATHER AND/OR OBSTRUCTIONS TO VISIBILITY. WIND
SPEEDS ARE IN MILES-PER-HOUR.




USA.gov is the U.S. government's official web portal to all federal, state and local government web resources and services.